| time (UTC) | temp F | wind direction | speed knots | gust knots | rain 1hr in | rain 24hr in | rain mn in | humidity % | barometer mb |
| 20260505152503 | 68 | 240 | 7.8 | 19.1 | 0.00 | 0.00 | 0.00 | 67 | 999.3 |
| 20260505151505 | 67 | 275 | 7.8 | 15.6 | 0.00 | 0.00 | 0.00 | 68 | 999.3 |
| 20260505124503 | 61 | 214 | 7.8 | 14.8 | 0.00 | 0.01 | 0.00 | 80 | 1000.0 |
| 20260505124003 | 60 | 234 | 7.0 | 14.8 | 0.00 | 0.01 | 0.00 | 80 | 1000.1 |
| 20260505123503 | 60 | 225 | 7.0 | 13.9 | 0.00 | 0.01 | 0.00 | 81 | 1000.1 |
| 20260505123004 | 60 | 229 | 7.8 | 13.9 | 0.00 | 0.01 | 0.00 | 81 | 1000.2 |
| 20260505122503 | 59 | 211 | 7.0 | 13.0 | 0.00 | 0.01 | 0.00 | 82 | 1000.1 |
| 20260505122003 | 59 | 185 | 6.1 | 13.0 | 0.00 | 0.01 | 0.00 | 83 | 1000.2 |
| 20260505121503 | 59 | 198 | 7.0 | 13.0 | 0.00 | 0.01 | 0.00 | 83 | 1000.3 |
| 20260505121003 | 59 | 171 | 7.0 | 13.0 | 0.00 | 0.01 | 0.00 | 83 | 1000.3 |
| 20260505120503 | 59 | 187 | 7.0 | 13.0 | 0.00 | 0.01 | 0.00 | 82 | 1000.2 |
| 20260505120008 | 59 | 213 | 7.8 | 13.9 | 0.00 | 0.01 | 0.00 | 82 | 1000.1 |
| 20260505115003 | 59 | 211 | 7.0 | 14.8 | 0.00 | 0.09 | 0.00 | 81 | 1000.2 |
| 20260505114503 | 60 | 207 | 8.7 | 14.8 | 0.00 | 0.09 | 0.00 | 79 | 1000.3 |
| 20260505114003 | 60 | 230 | 9.6 | 19.1 | 0.00 | 0.09 | 0.00 | 77 | 1000.3 |
| 20260505113503 | 61 | 234 | 11.3 | 20.0 | 0.00 | 0.09 | 0.00 | 73 | 1000.3 |
| 20260505113004 | 61 | 220 | 10.4 | 20.0 | 0.00 | 0.09 | 0.00 | 71 | 1000.3 |
| 20260505112503 | 61 | 258 | 6.1 | 18.2 | 0.00 | 0.09 | 0.00 | 70 | 1000.2 |
| 20260505112003 | 59 | 219 | 3.5 | 13.0 | 0.00 | 0.09 | 0.00 | 73 | 1000.0 |
| 20260505111503 | 57 | 192 | 2.6 | 4.3 | 0.00 | 0.09 | 0.00 | 73 | 999.9 |
| 20260505111003 | 56 | 166 | 1.7 | 4.3 | 0.00 | 0.09 | 0.00 | 73 | 999.9 |
| 20260505102003 | 53 | 132 | 1.7 | 2.6 | 0.00 | 0.09 | 0.00 | 74 | 999.4 |
| 20260505101504 | 53 | 113 | 1.7 | 2.6 | 0.00 | 0.09 | 0.00 | 74 | 999.4 |
| 20260505100503 | 53 | 126 | 1.7 | 3.5 | 0.00 | 0.09 | 0.00 | 73 | 999.4 |
| 20260505095503 | 54 | 123 | 1.7 | 2.6 | 0.00 | 0.09 | 0.00 | 72 | 999.5 |
| 20260505095001 | 54 | 134 | 1.7 | 3.5 | 0.00 | 0.09 | 0.00 | 72 | 999.5 |
| 20260505094503 | 54 | 128 | 2.6 | 4.3 | 0.00 | 0.09 | 0.00 | 72 | 999.6 |
| 20260505094002 | 54 | 134 | 2.6 | 4.3 | 0.00 | 0.09 | 0.00 | 72 | 999.6 |
| 20260505093003 | 54 | 173 | 3.5 | 5.2 | 0.00 | 0.09 | 0.00 | 72 | 999.9 |
| 20260505092002 | 54 | 173 | 3.5 | 5.2 | 0.00 | 0.09 | 0.00 | 72 | 999.8 |
| 20260505091502 | 54 | 178 | 2.6 | 5.2 | 0.00 | 0.09 | 0.00 | 72 | 999.7 |
| 20260505091001 | 54 | 179 | 2.6 | 4.3 | 0.00 | 0.09 | 0.00 | 72 | 999.8 |
| 20260505090501 | 54 | 196 | 1.7 | 3.5 | 0.00 | 0.09 | 0.00 | 72 | 999.8 |
| 20260505085501 | 54 | 234 | 3.5 | 6.1 | 0.00 | 0.09 | 0.00 | 71 | 999.9 |
| 20260505084502 | 54 | 186 | 4.3 | 7.0 | 0.00 | 0.09 | 0.00 | 71 | 1000.0 |
| 20260505084002 | 54 | 186 | 3.5 | 7.8 | 0.00 | 0.09 | 0.00 | 72 | 1000.0 |
| 20260505083501 | 53 | 181 | 2.6 | 4.3 | 0.00 | 0.09 | 0.00 | 72 | 999.9 |
| 20260505083003 | 53 | 178 | 2.6 | 4.3 | 0.00 | 0.09 | 0.00 | 72 | 1000.1 |
| 20260505082503 | 54 | 183 | 2.6 | 4.3 | 0.00 | 0.09 | 0.00 | 72 | 1000.0 |
| 20260505081503 | 54 | 194 | 2.6 | 4.3 | 0.00 | 0.09 | 0.00 | 73 | 1000.1 |
| 20260505081002 | 54 | 199 | 2.6 | 4.3 | 0.00 | 0.09 | 0.00 | 73 | 1000.0 |
| 20260505080501 | 53 | 202 | 2.6 | 4.3 | 0.00 | 0.09 | 0.00 | 73 | 1000.1 |
| 20260505075502 | 53 | 197 | 2.6 | 4.3 | 0.00 | 0.09 | 0.00 | 74 | 1000.0 |
| 20260505075001 | 53 | 205 | 2.6 | 4.3 | 0.00 | 0.09 | 0.00 | 75 | 999.9 |
| 20260505074503 | 52 | 208 | 2.6 | 4.3 | 0.00 | 0.09 | 0.00 | 76 | 999.9 |
| 20260505074002 | 52 | 196 | 2.6 | 4.3 | 0.00 | 0.09 | 0.00 | 76 | 999.9 |
| 20260505073502 | 52 | 201 | 2.6 | 4.3 | 0.00 | 0.09 | 0.00 | 77 | 999.9 |
| 20260505073004 | 51 | 200 | 1.7 | 3.5 | 0.00 | 0.09 | 0.00 | 78 | 999.9 |
| 20260505072502 | 51 | 205 | 1.7 | 2.6 | 0.00 | 0.09 | 0.00 | 79 | 1000.0 |
| 20260505072001 | 51 | 174 | 2.6 | 3.5 | 0.00 | 0.09 | 0.00 | 78 | 999.9 |
| 20260505071001 | 52 | 166 | 1.7 | 3.5 | 0.00 | 0.09 | 0.00 | 77 | 1000.0 |
| 20260505070501 | 52 | 180 | 1.7 | 2.6 | 0.00 | 0.09 | 0.00 | 76 | 1000.2 |
| 20260505070005 | 53 | 164 | 2.6 | 4.3 | 0.00 | 0.09 | 0.00 | 74 | 1000.3 |
| 20260505065502 | 53 | 163 | 2.6 | 4.3 | 0.00 | 0.09 | 0.00 | 74 | 1000.4 |
| 20260505065001 | 53 | 180 | 2.6 | 4.3 | 0.00 | 0.09 | 0.00 | 74 | 1000.5 |
| 20260505064502 | 54 | 191 | 2.6 | 4.3 | 0.00 | 0.09 | 0.00 | 74 | 1000.6 |
| 20260505064001 | 54 | 195 | 2.6 | 4.3 | 0.00 | 0.09 | 0.00 | 73 | 1000.7 |
| 20260505063501 | 54 | 198 | 2.6 | 4.3 | 0.00 | 0.09 | 0.00 | 73 | 1000.7 |
| 20260505063003 | 53 | 225 | 2.6 | 4.3 | 0.00 | 0.09 | 0.00 | 74 | 1000.7 |
| 20260505062503 | 53 | 216 | 2.6 | 4.3 | 0.00 | 0.09 | 0.00 | 75 | 1000.7 |
| 20260505062002 | 53 | 213 | 2.6 | 4.3 | 0.00 | 0.09 | 0.00 | 76 | 1000.7 |
| 20260505061502 | 53 | 213 | 1.7 | 2.6 | 0.00 | 0.09 | 0.00 | 77 | 1000.7 |
| 20260505061001 | 53 | 224 | 1.7 | 3.5 | 0.00 | 0.09 | 0.00 | 77 | 1000.6 |
| 20260505060004 | 53 | 220 | 1.7 | 3.5 | 0.00 | 0.09 | 0.00 | 77 | 1000.6 |
| 20260505055001 | 53 | 182 | 2.6 | 4.3 | 0.00 | 0.09 | 0.00 | 77 | 1000.8 |
| 20260505054502 | 53 | 185 | 2.6 | 4.3 | 0.00 | 0.09 | 0.00 | 77 | 1000.8 |
| 20260505054002 | 53 | 184 | 2.6 | 3.5 | 0.00 | 0.09 | 0.00 | 76 | 1000.8 |
| 20260505053501 | 53 | 171 | 2.6 | 3.5 | 0.00 | 0.09 | 0.00 | 76 | 1001.0 |
| 20260505052501 | 54 | 182 | 2.6 | 4.3 | 0.00 | 0.09 | 0.00 | 75 | 1001.1 |
| 20260505052001 | 53 | 187 | 2.6 | 5.2 | 0.00 | 0.09 | 0.00 | 75 | 1001.1 |
| 20260505051502 | 53 | 190 | 2.6 | 5.2 | 0.00 | 0.09 | 0.00 | 76 | 1001.3 |
| 20260505050501 | 53 | 186 | 2.6 | 3.5 | 0.00 | 0.09 | 0.00 | 78 | 1001.4 |
| 20260505041504 | 54 | 190 | 2.6 | 4.3 | 0.00 | 0.09 | 0.00 | 76 | 1001.5 |
| 20260505041004 | 54 | 194 | 2.6 | 4.3 | 0.00 | 0.09 | 0.00 | 76 | 1001.6 |
| 20260505040504 | 54 | 185 | 2.6 | 3.5 | 0.00 | 0.09 | 0.00 | 76 | 1001.6 |
| 20260505040008 | 54 | 179 | 2.6 | 4.3 | 0.00 | 0.09 | 0.00 | 75 | 1001.6 |
| 20260505035505 | 54 | 183 | 2.6 | 3.5 | 0.00 | 0.09 | 0.09 | 75 | 1001.7 |
| 20260505035005 | 54 | 192 | 1.7 | 3.5 | 0.00 | 0.09 | 0.09 | 75 | 1001.6 |
| 20260505034505 | 54 | 192 | 1.7 | 3.5 | 0.00 | 0.09 | 0.09 | 75 | 1001.7 |
| 20260505034005 | 54 | 161 | 2.6 | 3.5 | 0.00 | 0.09 | 0.09 | 75 | 1001.6 |
| 20260505033504 | 54 | 156 | 1.7 | 2.6 | 0.00 | 0.09 | 0.09 | 75 | 1001.6 |
| 20260505033006 | 55 | 171 | 2.6 | 3.5 | 0.00 | 0.09 | 0.09 | 75 | 1001.7 |
| 20260505032504 | 55 | 175 | 2.6 | 2.6 | 0.00 | 0.09 | 0.09 | 75 | 1001.7 |
| 20260505031506 | 55 | 171 | 1.7 | 3.5 | 0.00 | 0.09 | 0.09 | 75 | 1001.8 |
| 20260505031005 | 55 | 162 | 1.7 | 3.5 | 0.00 | 0.09 | 0.09 | 75 | 1001.8 |
| 20260505030504 | 55 | 171 | 2.6 | 4.3 | 0.00 | 0.09 | 0.09 | 76 | 1001.8 |
| 20260505025004 | 54 | 165 | 0.9 | 2.6 | 0.00 | 0.09 | 0.09 | 77 | 1001.8 |
| 20260505024505 | 55 | 165 | 0.0 | 2.6 | 0.00 | 0.09 | 0.09 | 76 | 1001.8 |
| 20260505024005 | 55 | 165 | 0.0 | 1.7 | 0.00 | 0.09 | 0.09 | 76 | 1001.9 |
| 20260505023504 | 55 | 165 | 0.9 | 1.7 | 0.00 | 0.09 | 0.09 | 76 | 1002.0 |
| 20260505022505 | 55 | 165 | 0.0 | 1.7 | 0.00 | 0.09 | 0.09 | 75 | 1002.0 |
| 20260505022004 | 56 | 165 | 0.0 | 1.7 | 0.00 | 0.09 | 0.09 | 74 | 1002.2 |
| 20260505021004 | 56 | 165 | 0.0 | 0.0 | 0.00 | 0.09 | 0.09 | 73 | 1002.1 |
| 20260505020504 | 57 | 165 | 0.0 | 0.0 | 0.00 | 0.09 | 0.09 | 72 | 1002.2 |
| 20260505020006 | 57 | 165 | 0.0 | 1.7 | 0.00 | 0.09 | 0.09 | 72 | 1002.3 |
| 20260505015505 | 57 | 165 | 0.9 | 2.6 | 0.00 | 0.09 | 0.09 | 72 | 1002.2 |
| 20260505015004 | 57 | 165 | 0.9 | 2.6 | 0.00 | 0.09 | 0.09 | 71 | 1002.3 |
| 20260505014505 | 57 | 165 | 0.9 | 1.7 | 0.00 | 0.09 | 0.09 | 71 | 1002.3 |
| 20260505013505 | 58 | 165 | 0.9 | 2.6 | 0.00 | 0.09 | 0.09 | 69 | 1002.4 |
| 20260505013005 | 58 | 165 | 0.9 | 2.6 | 0.00 | 0.09 | 0.09 | 69 | 1002.4 |
| 20260505012004 | 59 | 148 | 0.9 | 2.6 | 0.00 | 0.09 | 0.09 | 68 | 1002.4 |
| 20260505011004 | 59 | 159 | 0.9 | 2.6 | 0.00 | 0.09 | 0.09 | 68 | 1002.5 |
| 20260505005505 | 60 | 137 | 3.5 | 6.1 | 0.00 | 0.09 | 0.09 | 67 | 1002.4 |
| 20260505005004 | 60 | 122 | 3.5 | 7.0 | 0.00 | 0.09 | 0.09 | 66 | 1002.4 |
| 20260505004505 | 60 | 145 | 2.6 | 7.0 | 0.00 | 0.09 | 0.09 | 65 | 1002.4 |
| 20260505004004 | 60 | 155 | 2.6 | 6.1 | 0.00 | 0.09 | 0.09 | 65 | 1002.4 |
| 20260505003005 | 60 | 169 | 2.6 | 4.3 | 0.00 | 0.09 | 0.09 | 65 | 1002.4 |
| 20260505002504 | 60 | 168 | 1.7 | 3.5 | 0.00 | 0.09 | 0.09 | 64 | 1002.5 |
| 20260505001505 | 60 | 153 | 0.0 | 1.7 | 0.00 | 0.09 | 0.09 | 64 | 1002.2 |
| 20260505001004 | 60 | 153 | 0.0 | 0.0 | 0.00 | 0.09 | 0.09 | 64 | 1002.2 |
| 20260505000504 | 60 | 153 | 0.0 | 0.9 | 0.00 | 0.09 | 0.09 | 63 | 1002.1 |
| 20260505000007 | 60 | 153 | 0.0 | 0.9 | 0.00 | 0.09 | 0.09 | 63 | 1002.1 |
| 20260504235504 | 60 | 153 | 0.0 | 1.7 | 0.00 | 0.09 | 0.09 | 63 | 1002.1 |
| 20260504235004 | 60 | 153 | 0.9 | 1.7 | 0.00 | 0.09 | 0.09 | 63 | 1002.0 |
| 20260504234505 | 60 | 153 | 0.9 | 2.6 | 0.00 | 0.09 | 0.09 | 62 | 1001.9 |
| 20260504234004 | 61 | 153 | 1.7 | 2.6 | 0.00 | 0.09 | 0.09 | 63 | 1001.9 |
| 20260504232504 | 62 | 168 | 1.7 | 3.5 | 0.00 | 0.09 | 0.09 | 60 | 1001.7 |
| 20260504232004 | 62 | 155 | 1.7 | 3.5 | 0.00 | 0.09 | 0.09 | 59 | 1001.8 |
| 20260504231505 | 63 | 153 | 2.6 | 4.3 | 0.00 | 0.09 | 0.09 | 58 | 1001.7 |
| 20260504230006 | 65 | 201 | 4.3 | 6.1 | 0.00 | 0.09 | 0.09 | 54 | 1001.8 |
| 20260504225003 | 65 | 223 | 5.2 | 8.7 | 0.00 | 0.09 | 0.09 | 53 | 1001.9 |
| 20260504224503 | 65 | 238 | 5.2 | 12.2 | 0.00 | 0.09 | 0.09 | 53 | 1001.9 |
| 20260504224003 | 65 | 259 | 5.2 | 12.2 | 0.00 | 0.09 | 0.09 | 52 | 1002.0 |
| 20260504223503 | 65 | 217 | 6.1 | 10.4 | 0.00 | 0.09 | 0.09 | 53 | 1002.0 |
| 20260504222003 | 65 | 246 | 7.0 | 11.3 | 0.00 | 0.09 | 0.09 | 52 | 1002.1 |
| 20260504221503 | 65 | 235 | 7.0 | 13.0 | 0.00 | 0.09 | 0.09 | 52 | 1002.1 |
| 20260504221004 | 65 | 224 | 6.1 | 12.2 | 0.00 | 0.09 | 0.09 | 52 | 1002.1 |
| 20260504220503 | 65 | 211 | 5.2 | 9.6 | 0.00 | 0.09 | 0.09 | 52 | 1002.1 |
| 20260504215504 | 65 | 214 | 7.0 | 13.0 | 0.00 | 0.09 | 0.09 | 52 | 1002.0 |
| 20260504215003 | 65 | 235 | 7.0 | 13.9 | 0.00 | 0.09 | 0.09 | 52 | 1002.1 |
| 20260504214003 | 65 | 241 | 5.2 | 13.0 | 0.00 | 0.09 | 0.09 | 53 | 1002.0 |
| 20260504213504 | 65 | 254 | 3.5 | 10.4 | 0.00 | 0.09 | 0.09 | 54 | 1002.0 |
| 20260504212503 | 65 | 216 | 2.6 | 6.1 | 0.00 | 0.09 | 0.09 | 56 | 1002.1 |
| 20260504212003 | 64 | 213 | 2.6 | 5.2 | 0.00 | 0.09 | 0.09 | 57 | 1002.0 |
| 20260504211504 | 64 | 158 | 1.7 | 5.2 | 0.00 | 0.09 | 0.09 | 57 | 1002.1 |
| 20260504211004 | 64 | 153 | 2.6 | 4.3 | 0.00 | 0.09 | 0.09 | 57 | 1002.1 |
| 20260504210503 | 63 | 174 | 3.5 | 7.0 | 0.00 | 0.09 | 0.09 | 59 | 1002.1 |
| 20260504210006 | 63 | 147 | 3.5 | 7.0 | 0.00 | 0.09 | 0.09 | 59 | 1002.1 |
| 20260504205003 | 63 | 152 | 4.3 | 7.8 | 0.00 | 0.09 | 0.09 | 59 | 1002.2 |
| 20260504204503 | 64 | 146 | 3.5 | 7.8 | 0.00 | 0.09 | 0.09 | 58 | 1002.4 |
| 20260504204003 | 65 | 153 | 2.6 | 7.0 | 0.00 | 0.09 | 0.09 | 58 | 1002.2 |
| 20260504203503 | 65 | 150 | 2.6 | 7.0 | 0.00 | 0.09 | 0.09 | 59 | 1002.2 |
| 20260504203005 | 64 | 159 | 2.6 | 6.1 | 0.00 | 0.09 | 0.09 | 60 | 1002.1 |
| 20260504202503 | 63 | 196 | 2.6 | 6.1 | 0.00 | 0.09 | 0.09 | 61 | 1002.2 |
| 20260504202004 | 62 | 158 | 4.3 | 8.7 | 0.00 | 0.09 | 0.09 | 61 | 1002.4 |
| 20260504201503 | 62 | 149 | 4.3 | 8.7 | 0.00 | 0.09 | 0.09 | 61 | 1002.5 |
| 20260504201003 | 62 | 134 | 3.5 | 7.8 | 0.00 | 0.09 | 0.09 | 61 | 1002.5 |
| 20260504200504 | 62 | 141 | 3.5 | 7.8 | 0.00 | 0.09 | 0.09 | 62 | 1002.4 |
| 20260504195003 | 61 | 153 | 3.5 | 7.0 | 0.00 | 0.09 | 0.09 | 64 | 1002.5 |
| 20260504194503 | 61 | 161 | 3.5 | 8.7 | 0.00 | 0.09 | 0.09 | 63 | 1002.6 |
| 20260504194003 | 61 | 140 | 3.5 | 8.7 | 0.00 | 0.09 | 0.09 | 64 | 1002.7 |
| 20260504193503 | 61 | 172 | 2.6 | 7.0 | 0.00 | 0.09 | 0.09 | 65 | 1002.8 |
| 20260504193004 | 61 | 160 | 2.6 | 7.0 | 0.00 | 0.09 | 0.09 | 65 | 1002.7 |
| 20260504192503 | 61 | 145 | 2.6 | 7.0 | 0.00 | 0.09 | 0.09 | 64 | 1002.8 |
| 20260504192003 | 61 | 185 | 2.6 | 5.2 | 0.00 | 0.09 | 0.09 | 66 | 1003.0 |
| 20260504191503 | 60 | 234 | 2.6 | 4.3 | 0.00 | 0.09 | 0.09 | 66 | 1003.0 |
| 20260504191003 | 60 | 175 | 2.6 | 4.3 | 0.00 | 0.09 | 0.09 | 67 | 1003.1 |
| 20260504190503 | 59 | 252 | 2.6 | 6.1 | 0.00 | 0.09 | 0.09 | 67 | 1003.3 |
| 20260504190005 | 59 | 255 | 3.5 | 7.0 | 0.00 | 0.09 | 0.09 | 67 | 1003.3 |
| 20260504185503 | 59 | 137 | 4.3 | 7.0 | 0.00 | 0.09 | 0.09 | 67 | 1003.5 |
| 20260504185003 | 59 | 175 | 3.5 | 7.0 | 0.00 | 0.09 | 0.09 | 67 | 1003.5 |
| 20260504184503 | 59 | 238 | 2.6 | 7.8 | 0.00 | 0.09 | 0.09 | 67 | 1003.5 |
| 20260504184004 | 59 | 221 | 2.6 | 6.1 | 0.00 | 0.09 | 0.09 | 68 | 1003.5 |
| 20260504183503 | 59 | 234 | 3.5 | 7.0 | 0.00 | 0.09 | 0.09 | 69 | 1003.6 |
| 20260504183004 | 58 | 217 | 4.3 | 7.8 | 0.00 | 0.09 | 0.09 | 70 | 1003.8 |
| 20260504182503 | 57 | 236 | 4.3 | 8.7 | 0.00 | 0.09 | 0.09 | 71 | 1003.8 |
| 20260504181505 | 57 | 227 | 5.2 | 7.8 | 0.00 | 0.09 | 0.09 | 72 | 1003.8 |
| 20260504180503 | 57 | 205 | 3.5 | 8.7 | 0.00 | 0.09 | 0.09 | 72 | 1003.7 |
| 20260504180006 | 57 | 150 | 3.5 | 6.1 | 0.00 | 0.09 | 0.09 | 73 | 1003.8 |
| 20260504175503 | 57 | 182 | 2.6 | 6.1 | 0.00 | 0.09 | 0.09 | 73 | 1003.7 |
| 20260504175003 | 56 | 167 | 2.6 | 6.1 | 0.00 | 0.09 | 0.09 | 74 | 1003.9 |
| 20260504174003 | 56 | 155 | 2.6 | 7.0 | 0.00 | 0.09 | 0.09 | 74 | 1004.0 |
| 20260504173504 | 56 | 290 | 1.7 | 5.2 | 0.00 | 0.09 | 0.09 | 73 | 1004.0 |
| 20260504173005 | 57 | 226 | 1.7 | 4.3 | 0.00 | 0.09 | 0.09 | 74 | 1004.0 |
| 20260504172003 | 56 | 269 | 2.6 | 4.3 | 0.00 | 0.09 | 0.09 | 76 | 1004.1 |
| 20260504171504 | 56 | 247 | 2.6 | 6.1 | 0.00 | 0.09 | 0.09 | 76 | 1004.2 |
| 20260504171003 | 56 | 265 | 3.5 | 7.0 | 0.00 | 0.09 | 0.09 | 75 | 1004.1 |
| 20260504170503 | 56 | 244 | 3.5 | 8.7 | 0.00 | 0.09 | 0.09 | 75 | 1004.1 |